sat.trackr.live / text

‹ back to catalog

ONEWEB-0026

NORAD 45139 · 2020-008J

PAYLOAD ACTIVE UNKNOWN

§ Identity

Operator
Country
UK
Launch date
2020-02-06
Launch site
TYMSC
Launch vehicle
Mass (kg)
RCS (m²)

Purposes: comms

External: N2YO · Heavens-Above · Gunter

§ Orbital elements

Epoch: 2026-09-15T17:21:04.686624Z

Period
109.80 min
Inclination
87.8969°
Eccentricity
0.0001675
Mean motion
13.11418069 rev/d
Perigee alt
1,216.4 km
Apogee alt
1,219.0 km
Semi-major
7,595.8 km
B*
-2.7372e-4
RAAN
3.0674°
Arg perigee
98.9280°
Mean anomaly
261.2038°
Rev number
32,297

§ Raw data

ONEWEB-00261 45139U 20008J   26258.72297091 -.00000084  00000+0 -27372-3 0  99992 45139  87.8969   3.0674 0001675  98.9280 261.2038 13.11418069322975

JSON: /api/v1/satellites/45139 · /tle

For live sub-satellite position, see the globe view (requires WebGL).

§ Visibility from observer

Set your observer location to see the next 7 days of passes ≥ 10°. The values pass through the URL so the page stays shareable.

No JS? Fill the form by hand. The geolocation button needs JavaScript.